Location: Unspecified
(0.0000°N, 0.0000°E)
Time: 12:46:04
(UTC+00:00)

deb r/b Ablestar - Pass Details

Date: 21 April 2026
Orbit: 834 x 1371 km, 65.9° (Epoch: 10 May)

Event Time Altitude Azimuth Distance (km) Brightness Sun altitude
Exits shadow 05:01:46 18° 265° (W) 2,605 ? -13.9°
Maximum altitude 05:04:38 22° 293° (WNW) 2,435 ? -13.2°
Drops below altitude 10° 05:10:29 10° 340° (NNW) 3,330 ? -11.8°
Sets 05:14:15 0° 355° (N) 4,351 ? -10.9°
